Weather History for Madison, WI

Change the Weather History Date:

Thursday, October 4, 2012

  Actual Average Record
Temperature  
Mean Temperature 55 °F 53 °F  
Max Temperature 65 °F 64 °F 87 °F (2005)
Min Temperature 44 °F 42 °F 25 °F (1989)
Degree Days  
Heating Degree Days 10 12  
Month to date heating degree days 41 46  
Since 1 July heating degree days 253 254  
Cooling Degree Days 0 0  
Month to date cooling degree days 0 0  
Year to date cooling degree days 1065 564  
Growing Degree Days 5 (Base 50)    
Moisture  
Dew Point 44 °F    
Average Humidity 63    
Maximum Humidity 86    
Minimum Humidity 39    
Precipitation  
Precipitation T in 0.08 in 1.42 in (1919)
Month to date precipitation T 0.32  
Year to date precipitation 18.30 28.27  
Snow  
Snow 0.00 in 0.00 in T in (1935)
Month to date snowfall 0.0 0.0  
Since 1 July snowfall 0.0 0.0  
Since 1 September snowfall 0.0 0.0  
Snow Depth 0.00 in    
Sea Level Pressure  
Sea Level Pressure 30.01 in    
Wind  
Wind Speed 8 mph (SW)    
Max Wind Speed 14 mph    
Max Gust Speed 23 mph    
Visibility 10 miles    
Events      
T = Trace of Precipitation, MM = Missing Value Source: NWS Daily Summary

Daily Weather History Graph

Daily Weather History Graph

Search for Another Location

Airport:

Trip Planner

Search our weather history database for the weather conditions in past years. The results will help you decide how hot, cold, wet, or windy it might be!

Date:

Astronomy

Oct. 04, 2012 Rise Set
Actual Time 6:58 AM CDT 6:32 PM CDT
Civil Twilight 6:30 AM CDT 7:00 PM CDT
Nautical Twilight 5:57 AM CDT 7:33 PM CDT
Astronomical Twilight 5:24 AM CDT 8:06 PM CDT
Moon 9:00 PM CDT (10/4) 11:22 AM CDT (10/4)
Length of Visible Light 12h 30m
Length of Day
11h 33m
Waning Gibbous, 82% of the Moon is Illuminated
Oct 4
Waning Gibbous
Oct 8
Last Quarter
Oct 15
New
Oct 21
First Quarter
Oct 29
Full

Hourly Weather History & Observations

Time (CDT) Temp. Windchill Dew Point Humidity Pressure Visibility Wind Dir Wind Speed Gust Speed Precip Events Conditions
12:53 AM 59.0 °F - 51.1 °F 75% 30.00 in 10.0 mi SSW 3.5 mph - N/A   Clear
1:53 AM 55.9 °F - 51.1 °F 84% 29.99 in 10.0 mi South 3.5 mph - N/A   Clear
2:53 AM 55.9 °F - 50.0 °F 80% 29.98 in 10.0 mi SSW 4.6 mph - N/A   Clear
3:53 AM 55.9 °F - 50.0 °F 80% 29.98 in 10.0 mi Variable 4.6 mph - N/A   Clear
4:53 AM 55.9 °F - 50.0 °F 80% 29.98 in 10.0 mi South 5.8 mph - N/A   Clear
5:53 AM 55.0 °F - 50.0 °F 83% 29.97 in 10.0 mi South 6.9 mph - N/A   Clear
6:53 AM 55.0 °F - 50.0 °F 83% 29.97 in 10.0 mi South 5.8 mph - N/A   Clear
7:53 AM 55.9 °F - 51.1 °F 84% 29.97 in 10.0 mi South 6.9 mph - N/A   Partly Cloudy
8:53 AM 60.1 °F - 51.1 °F 72% 29.95 in 10.0 mi South 10.4 mph - N/A   Clear
9:53 AM 64.9 °F - 51.1 °F 61% 29.96 in 10.0 mi SW 9.2 mph - N/A   Partly Cloudy
10:53 AM 64.0 °F - 50.0 °F 60% 29.96 in 10.0 mi SW 9.2 mph - N/A   Overcast
11:53 AM 63.0 °F - 50.0 °F 63% 29.94 in 10.0 mi WSW 8.1 mph - N/A   Mostly Cloudy
12:53 PM 62.1 °F - 46.9 °F 58% 29.99 in 10.0 mi SW 11.5 mph 20.7 mph N/A   Overcast
1:53 PM 57.0 °F - 45.0 °F 64% 30.00 in 10.0 mi WSW 8.1 mph 23.0 mph 0.00 in   Overcast
2:53 PM 59.0 °F - 44.1 °F 58% 29.99 in 10.0 mi SW 11.5 mph 16.1 mph 0.00 in   Mostly Cloudy
3:53 PM 60.1 °F - 43.0 °F 53% 30.01 in 10.0 mi Variable 6.9 mph 16.1 mph N/A   Partly Cloudy
4:53 PM 62.1 °F - 41.0 °F 46% 30.00 in 10.0 mi West 6.9 mph - N/A   Partly Cloudy
5:53 PM 60.1 °F - 35.1 °F 39% 30.01 in 10.0 mi WNW 10.4 mph 16.1 mph N/A   Mostly Cloudy
6:53 PM 55.9 °F - 35.1 °F 45% 30.04 in 10.0 mi Variable 5.8 mph - N/A   Partly Cloudy
7:53 PM 54.0 °F - 34.0 °F 47% 30.07 in 10.0 mi WNW 8.1 mph - N/A   Clear
8:53 PM 51.1 °F - 33.1 °F 50% 30.08 in 10.0 mi West 5.8 mph - N/A   Clear
9:53 PM 48.9 °F - 32.0 °F 52% 30.09 in 10.0 mi WNW 9.2 mph - N/A   Clear
10:53 PM 46.9 °F - 32.0 °F 56% 30.11 in 10.0 mi WNW 6.9 mph - N/A   Clear
11:53 PM 45.0 °F 40.6 °F 30.9 °F 58% 30.14 in 10.0 mi WNW 8.1 mph - N/A   Clear